Location: Pedimozza
(42.0500°N, 9.3500°E)
Time: 03:56:58
(UTC+00:00)

NOSS 3-1 (A) - Pass Details

Date: 19 August 2019
Orbit: 772 x 1440 km, 63.4° (Epoch: 08 October)

Event Time Altitude Azimuth Distance (km) Brightness Sun altitude
Rises 21:49:07 0° 326° (NW) 3,945 7.8 -30.9°
Reaches altitude 10° 21:51:44 10° 331° (NNW) 3,077 7.0 -31.2°
Maximum altitude 21:59:07 55° 49° (NE) 1,528 4.4 -31.8°
Enters shadow 22:00:31 49° 82° (E) 1,639 4.4 -31.9°
